Other Public Products
Issued by NWS Grand Forks, ND

Home | Current Version | Previous Version | Text Only | Print | Product List | Glossary On
Versions: 1 2 3 4 5 6 7 8 9 10 11 12 13 14 15 16 17 18 19 20 21 22 23 24 25 26 27 28 29 30 31 32 33 34 35 36 37 38 39 40 41 42 43 44 45 46 47 48 49 50
000
FPUS83 KFGF 211010
OPUFGF
PRAIRIE TO PINES WEATHER ROUNDUP
NATIONAL WEATHER SERVICE EASTERN NORTH DAKOTA/GRAND FORKS ND
400 AM CST WED FEB 21 2018

 **SATELLITE DATA USED TO AUGMENT SKY COVER AT AUTOMATED STATIONS**
 *****  WEATHER ACROSS EASTERN NORTH DAKOTA  *****

CITY           SKY/WX    TMP DP  RH WIND       PRES   REMARKS
GRAND FORKS    FAIR       1  -7  68 W10       30.30R WCI -15
GRND FORKS AFB NOT AVBL
GRND FORKS NWS   N/A     -1  -5  82 W5        30.28R WCI -11
BUXTON           N/A     -1  -3  93 SW7         N/A  WCI -15
DEVILS LAKE    FAIR      -4 -10  75 W14       30.26R WCI -24
FARGO          FAIR      -1  -8  72 SW12      30.37R WCI -18
WAHPETON ARPT  FAIR      -6 -13  71 SW9       30.42R WCI -22
$$

 *****  WEATHER ACROSS CENTRAL AND WESTERN NORTH DAKOTA  *****

CITY           SKY/WX    TMP DP  RH WIND       PRES   REMARKS
JAMESTOWN      FAIR       0  -8  69 W8        30.30R WCI -14
BISMARCK       FAIR      -5 -13  68 SW6       30.34S WCI -18
MINOT          FAIR       0 -11  59 SW18      30.23S WCI -21
MINOT AFB      FAIR      -3 -11  66 W12       30.23R WCI -21
GARRISON         N/A     -9 -16  71 S5        30.27R WCI -20
WILLISTON      FAIR      -9 -15  75 S3        30.26S
DICKINSON      FAIR      -4 -12  68 W16       30.22R WCI -25
HETTINGER      FAIR     -13 -19  75 NW3       30.28S
$$

 *****  OTHER OBSERVATIONS NORTHEAST NORTH DAKOTA  *****

CITY           SKY/WX    TMP DP  RH WIND       PRES   REMARKS
WALHALLA       FAIR       3  -6  66 W14G20    30.23R WCI -15
LANGDON        FAIR      -4  -8  84 W17       30.20R WCI -26
CAVALIER         N/A      1  -6  71 W13       30.25R WCI -16
GRAFTON        FAIR       1  -6  71 W16       30.30R WCI -18
CANDO          FAIR      -4 -11  71 W15       30.26R WCI -25
FORT TOTTEN      N/A     -3 -12  65 W5        29.95S WCI -14
ROLLA          FAIR      -8 -13  77 SW10      30.20R WCI -26
RUGBY            N/A     -9 -15  77 SW13      30.25S WCI -30
 ***** THE ABOVE OBSERVATIONS ARE NON NWS ARE NOT QUALITY
        CONTROLLED AND MAY MIS-REPORT RAIN FOR SNOW...
$$

 *****  OTHER OBSERVATIONS SOUTHEAST NORTH DAKOTA *****

CITY           SKY/WX    TMP DP  RH WIND       PRES   REMARKS
COOPERSTOWN    FAIR      -2  -9  71 W14       30.29R WCI -21
VALLEY CITY    FAIR      -2  -9  71 W13       30.34R WCI -21
OAKES            N/A     -9 -15  77 SW7       30.38R WCI -24
GWINNER          N/A     -8 -13  77 SW13      30.38S WCI -28
SHEYENNE NWR     N/A     -8 -15  72 SW7       29.95S WCI -23
BUFFALO          N/A     -1  -8  70 N8          N/A  WCI -15
WYNDMERE       NOT AVBL
 ***** THE ABOVE OBSERVATIONS ARE NON NWS ARE NOT QUALITY
       CONTROLLED AND MAY MIS-REPORT RAIN FOR SNOW...
$$

  *****  WEATHER ACROSS NORTHERN MINNESOTA  *****

CITY           SKY/WX    TMP DP  RH WIND       PRES   REMARKS
FLAG ISLAND    FAIR      -2  -6  84 SW13      30.18R WCI -21
WARROAD        FAIR      -2  -8  78 SW10      30.21S WCI -19
ROSEAU         FAIR       0  -6  78 SW12      30.23R WCI -18
HALLOCK        FAIR      -2  -8  78 SW12      30.25S WCI -20
THF RVR FALLS  FAIR      -4  -9  79 SW15      30.28R WCI -25
HALSTAD        NOT AVBL
FOSSTON        FAIR      -9 -13  84 S9        30.30R WCI -27
BAUDETTE       FAIR      -6 -10  83 SW7       30.21R WCI -20
WASKISH        FAIR       0  -6  78 SW12      30.26R WCI -18
CROOKSTON      FAIR      -6 -11  77 S10       30.32S WCI -23
$$
  *****  WEATHER ACROSS CENTRAL AND WEST MINNESOTA  *****

CITY           SKY/WX    TMP DP  RH WIND       PRES   REMARKS
BEMIDJI        FAIR      -4  -7  84 S5        30.28R WCI -14
PARK RAPIDS    FAIR      -8 -14  74 SW8       30.30R WCI -24
WADENA         FAIR      -6  -9  84 W9        30.35R WCI -22
DETROIT LAKES  FAIR      -2  -8  78 SW3       30.34R
MOORHEAD       FAIR      -6 -11  77 S7        30.38R WCI -20
FERGUS FALLS   FAIR      -6 -11  77 SW3       30.42R
ELBOW LAKE     FAIR      -5 -10  79 SW9       30.41R WCI -21
MORRIS MN      FAIR      -4  -9  77 SW8       30.42R WCI -19
STAPLES        FAIR      -2  -8  78 SW6       30.36R WCI -14
WHEATON        FAIR      -2  -9  71 SW5       30.45R WCI -12
$$
  *****  WEATHER ELSEWHERE ACROSS MINNESOTA  *****

CITY           SKY/WX    TMP DP  RH WIND       PRES   REMARKS
DULUTH         FAIR      -3  -8  79 W12       30.29R WCI -21
INTRNTL FALLS  FAIR      -7 -11  83 SW5       30.24R WCI -18
ELY            FLURRIES  -2  -6  84 SW3       30.25R
CLOQUET        FAIR       0  -6  78 W8        30.32R WCI -15
BRAINERD       FAIR      -2  -8  76 SW7       30.36R WCI -15
HIBBING        FAIR     -15 -19  82 CALM      30.28R
ALEXANDRIA     FAIR       0  -6  76 W12       30.38R WCI -17
SAINT CLOUD    FAIR      -4  -7  87 SW6       30.43R WCI -16
MINNEAPOLIS    FAIR       5   1  83 W6        30.47R WCI  -6
$$

  *****  WEATHER ACROSS SOUTH DAKOTA  *****

CITY           SKY/WX    TMP DP  RH WIND       PRES   REMARKS
SIOUX FALLS    FAIR      -3  -8  79 W7        30.50R WCI -16
BROOKINGS      FAIR      -5 -10  79 W7        30.45R WCI -19
WATERTOWN      FAIR      -9 -14  78 SW7       30.39R WCI -24
HURON          FAIR      -5 -10  79 SW6       30.49R WCI -18
SISSETON         N/A     -2  -9  72 W7        30.41R WCI -15
ABERDEEN       FAIR     -17 -21  82 S8        30.44R WCI -35
MITCHELL       FAIR      -2  -9  72 W9        30.51S WCI -18
PIERRE         FAIR      -4 -11  72 W15       30.43S WCI -25
MOBRIDGE       FAIR      -6 -14  68 CALM      30.36R
RAPID CITY     FAIR     -14 -16  91 CALM      30.27F
$$

  *****  SOME WEATHER IN NEARBY STATES *****

CITY           SKY/WX    TMP DP  RH WIND       PRES   REMARKS
GLASGOW MT     FAIR     -14 -19  79 SW3       30.25R
GREAT FALLS MT CLOUDY    -4 -12  68 SW7       30.10F WCI -18
CHEYENNE WY    FAIR       4  -1  80 NW5       30.10S WCI  -5
SCOTTSBLUFF NE FAIR      -8 -13  78 CALM      30.25F
OMAHA NE       FAIR       9   4  80 N7        30.54R WCI  -2
DES MOINES IA  FAIR      13   7  77 N7        30.50R WCI   3
DAVENPORT IA   MOCLDY    22  14  71 NW14      30.44R WCI   9
CHICAGO IL     CLOUDY    31  24  75 NW14      30.30R WCI  21
EAU CLAIRE WI  FAIR       5  -1  76 W6        30.43R WCI  -6
LA CROSSE WI   FAIR      13   6  74 NW10      30.46R WCI   0
$$

  *****  SOME NATIONAL WEATHER *****

CITY           SKY/WX    TMP DP  RH WIND       PRES   REMARKS
LA GUARDIA NY  CLOUDY    50  49  96 S6        30.30S FOG
RALEIGH NC     CLOUDY    63  63 100 SW9       30.45R FOG
ATLANTA GA     CLOUDY    66  66 100 S6        30.37S
NEW ORLEANS LA MOCLDY    70  70 100 SE6       30.19S
OKLAHOMA CITY  MOCLDY    22  18  85 N23       30.31F WCI   6
ALBUQUERQUE NM MOCLDY    32  16  51 N5        30.10F
SALT LAKE CITY FAIR      16   5  62 SE8       30.15F WCI   5
LOS ANGELES CA MOCLDY    48  25  40 NE6       30.12S
BOISE ID       FAIR      23   5  46 SE10      30.14F WCI  12
SEATTLE WA     FAIR      29  15  56 E9        30.31R WCI  20
$$

*** WEATHER ACROSS MANITOBA...SASKATCHEWAN AND ONTARIO ***
                ***ONTARIO***

CITY           SKY/WX    TMP DP  RH WIND       PRES   REMARKS
GERALDTON      NOT AVBL
THUNDER BAY    NOT AVBL
SIOUX LOOKOUT  NOT AVBL
TORONTO        NOT AVBL
BIG TROUT LK   NOT AVBL
PICKLE LAKE    NOT AVBL
DRYDEN         NOT AVBL
KENORA         NOT AVBL
$$
                *** MANITOBA***

CITY           SKY/WX    TMP DP  RH WIND       PRES   REMARKS
BRANDON        NOT AVBL
DAUPHIN        NOT AVBL
ISLAND LAKE    NOT AVBL
PILOT MOUND    NOT AVBL
THE PAS        NOT AVBL
THOMPSON       NOT AVBL
WINNIPEG       NOT AVBL
$$
                ***SASKATCHEWAN***

CITY           SKY/WX    TMP DP  RH WIND       PRES   REMARKS
ESTEVAN        NOT AVBL
KINDERSLEY     NOT AVBL
LLOYDMINSTER   NOT AVBL
PRINCE ALBERT  NOT AVBL
REGINA         NOT AVBL
YORKTON        NOT AVBL
N. BATTLEFORD  NOT AVBL
LA RONGE       NOT AVBL
SASKATOON      NOT AVBL



USA.gov is the U.S. government's official web portal to all federal, state and local government web resources and services.